COSMOS 1275 DEB

Satellite information

Favourite Embed

Satellite Type and Status

DEBRISIN ORBIT

Key statistics

Satellite COSMOS 1275 DEB at a glance.

Uptime

16104

Days in orbit

Revolutions

≈ 14.5

Per day

Orbit

LEO

Low Earth Orbit

Inclination

82.9

Latest

Satellite identification and parameters

Extended collection of information and parameters for COSMOS 1275 DEB.

Object identification

Identified? True

Debris? True

Object name: COSMOS 1275 DEB

International designator: 1981-053UL

Object number (NORAD): 42220

Object ID (CCSDS): 42220

Country: COMMONWEALTH OF INDEPENDENT STATES (CIS)

Current information (Y/N): Y

RCS size: SMALL

Orbital parameters

Period: 99.182 minutes

Inclination: 82.9064 deg

SMA: 7097.666 km

Apoapsis: 732.682 km

Periapsis: 706.38 km

RAAN: 227.3205 deg

Eccentricy: 0.0018529

Argument of periapsis: 291.2549 deg

Mean anomaly: 68.6671 deg

Mean motion: 14.51875641 rev/day

Mean motion (dot): 0.00005004 rev/day2

B* drag term: 0.0012351 1/REarth

Two-line elements (TLE)

Creation date: July 6, 2025, 4:10 a.m.

Reference frame: TEME

Reference center: EARTH

Epoch: July 5, 2025, 7:54 p.m. UTC

TLE line 0: 0 COSMOS 1275 DEB

TLE line 1: 1 42220U 81053UL 25186.82922177 .00005004 00000-0 12351-2 0 9990

TLE line 2: 2 42220 82.9064 227.3205 0018529 291.2549 68.6671 14.51875641605488

Live tracking on map

Real-time ground track for satellite COSMOS 1275 DEB.

In-orbit conjunctions

A list of the most updated potential collisions computed for object COSMOS 1275 DEB.

Target Orbit TCA Probability of collision Miss distance Type
COSMOS 332 LEO 2024-12-21 19:11:49 0.000132782 284.0 (m) PAYLOAD
ORBCOMM FM 3 SSO 2024-10-10 10:16:34 0.0001165853 306.0 (m) PAYLOAD

Associated space launch

Navigation satellite providing location information for the Tsiklon-B navigation system

COSMOS 1275 DEB was lifted into orbit during the mission ‘Kosmos-3M | Parus 27’, on board a Kosmos-3M space rocket.

The launch took place on June 4, 1981, 3:41 p.m. from 132/2.

For more information about the launch, click the button.

Launch to space Kosmos-3M | Parus 27
Kosmos-3M | Parus 27

Agency: N/A

Status: Launch Successful

Launch date: June 4, 1981, 3:41 p.m. UTC

Rocket: Kosmos-3M

Launch pad: 132/2

Location: Plesetsk Cosmodrome, Russian Federation

...

Latest news about this satellite

There are no fresh news available about this satellite. Check back as we update our databases every day.


Newsletter sign-up

Weekly statistics, charts and insights to help you stay on top of the space industry.